Terminal Aerodrome Forecast
Issued by NWS Los Angeles, CA

Home | Current Version | Previous Version | Text Only | Print | Product List | Glossary On
Versions: 1 2 3 4 5 6 7 8 9 10 11 12 13 14 15 16 17 18 19 20 21 22 23 24 25 26
000
FTUS46 KLOX 172300
TAFSMX
TAF
KSMX 172335Z 1800/1824 30009KT P6SM SKC
     FM180300 30007KT 5SM BR OVC004
     FM180600 VRB03KT 3SM BR OVC002
     FM181000 VRB03KT 1/2SM FG VV001
     FM181500 VRB03KT 2SM BR OVC002
     FM181700 28004KT P6SM BKN007
     FM181900 30007KT P6SM SCT012
     FM182100 30012KT P6SM SKC=

USA.gov is the U.S. government's official web portal to all federal, state and local government web resources and services.